[[{"header":{"parameterUnit":"m.s-1","parameterCategory":1,"la1":30.2991,"la2":30.254,"lo1":-89.0895,"lo2":-89.0444,"dy":0.0017,"dx":0.0017,"nx":28,"ny":28,"refTime":"2023-08-26T21:00:00:Z","depth":0,"parameterNumber":2,"parameterNumberName":"U-component_of_WINDS"},"data":[0,0,0,0,0,0,0,0,0,0,0,0,0,0,0,0,0,0,0,0,0,0,0,0,0,0,0,0,0,0,0,0,0,0,0,0,0,0,0,0,0,0,0,0,0,0,0,0,0,0,0,0,0,0,0,0,0,0,4.1087,4.1093,0,4.1603,4.1609,4.1614,4.189,4.1891,4.1891,4.1892,4.2406,4.2419,4.2432,0,0,0,0,0,0,0,0,0,0,0,0,0,4.0325,4.0337,4.1086,4.1093,4.1099,4.1602,4.1609,4.1616,4.189,4.1891,4.1892,4.1892,4.2402,4.2417,4.2433,0,0,0,0,0,0,0,0,0,0,0,0,0,4.0729,4.0341,4.1085,4.1297,4.1321,4.16,4.1609,4.1618,4.189,4.1891,4.1892,4.1893,4.2397,4.2416,4.2435,4.2539,0,0,4.2496,4.2504,0,0,0,0,0,0,0,0,4.0706,4.0756,4.126,4.1283,4.1311,4.1684,4.1529,4.1926,4.189,4.1674,4.1892,4.1893,4.2164,4.2203,4.2297,4.2563,4.2585,4.2497,4.2509,4.2518,4.2523,0,0,0,0,0,0,0,4.0677,4.0736,4.129,4.1266,4.1298,4.1362,4.142,4.1606,4.1907,4.1692,4.1714,4.1772,4.2178,4.2278,4.2311,4.2593,4.2497,4.2514,4.2526,4.2534,4.2967,4.2967,0,0,0,0,0,0,4.0617,4.0711,4.1274,4.1306,4.1005,4.1375,4.144,4.1562,4.1906,4.1959,4.1771,4.1783,4.2244,4.2288,4.233,4.2474,4.2517,4.2536,4.2547,4.2967,4.2967,4.2966,0,0,0,0,0,0,4.06,4.0665,4.1253,4.1015,4.1094,4.1387,4.1522,4.1572,4.1673,4.1965,4.2019,4.1818,4.2246,4.2303,4.2486,4.2496,4.2545,4.2563,4.2968,4.2967,4.2967,4.2761,0,0,0,0,0,0,4.0577,4.0657,4.0703,4.1014,4.1106,4.1403,4.1523,4.1582,4.1707,4.1728,4.2024,4.2073,4.2251,4.2455,4.2505,4.2524,4.2578,4.2968,4.2967,4.2967,4.2768,4.2753,4.2741,0,0,0,0,0,4.0549,4.0622,4.0704,4.077,4.117,4.1404,4.1456,4.1663,4.1707,4.1753,4.1941,4.2064,4.2486,4.2471,4.253,4.2554,4.2968,4.2968,4.2967,4.2774,4.2756,4.2741,0,0,0,0,0,0,4.03,4.0666,4.0761,4.0938,4.1138,4.145,4.1515,4.1638,4.1826,4.1837,4.2081,4.2146,4.2305,4.2448,4.2425,4.2672,4.274,4.2751,4.2573,4.2558,4.2545,4.2506,4.2595,0,0,0,0,0,4.0266,4.043,4.0739,4.0865,4.0961,4.1219,4.1329,4.1472,4.1687,4.1771,4.1973,4.2172,4.2351,4.2462,4.2642,4.279,4.2856,4.2835,4.2821,4.2809,4.2815,4.2901,4.2895,4.2964,4.2964,4.2964,0,0,4.0197,4.0418,4.0505,4.0821,4.0993,4.1152,4.1289,4.1452,4.1571,4.1795,4.1981,4.2135,4.2374,4.2539,4.2621,4.2663,4.2811,4.2808,4.2796,4.281,4.29,4.2893,4.2887,4.2964,4.2964,4.2964,0,0,4.0153,4.0337,4.0463,4.0632,4.0892,4.1064,4.1092,4.1387,4.1499,4.169,4.1861,4.2003,4.2305,4.2469,4.259,4.2606,4.2725,4.2657,4.2585,4.2666,4.2661,4.2657,4.2661,4.2659,4.2662,4.2662,4.2661,0,4.0033,4.0286,4.0509,4.0664,4.0796,4.1009,4.1135,4.1287,4.1589,4.1673,4.1717,4.21,4.2276,4.2481,4.2485,4.2577,4.2615,4.2624,4.2645,4.2643,4.2643,4.2649,4.265,4.2652,4.2653,4.2654,4.2655,0,4.0124,4.0295,4.0364,4.0656,4.0796,4.0933,4.1174,4.1288,4.1417,4.1581,4.1771,4.199,4.2218,4.2277,4.2403,4.2499,4.2517,4.2599,4.2672,4.2622,4.2632,4.2636,4.2637,4.2641,4.2644,4.2646,0,0,3.9938,4.0353,4.0374,4.0508,4.081,4.0944,4.1089,4.1317,4.1408,4.1608,4.1734,4.1984,4.2062,4.22,4.2346,4.2418,4.2413,4.2492,4.2501,4.2468,4.253,4.2465,4.2464,4.2494,4.2496,4.2497,4.2509,0,3.9936,4.0215,4.0419,4.0616,4.0776,4.0979,4.1106,4.1301,4.1459,4.1613,4.1785,4.1958,4.2049,4.2133,4.2213,4.2396,4.2428,4.2399,4.2609,4.2614,4.2543,4.247,4.2403,4.2404,4.2514,4.2515,4.2516,0,3.9972,4.017,4.0383,4.0667,4.0742,4.0852,4.1076,4.1222,4.1446,4.1555,4.1708,4.186,4.2018,4.2076,4.2295,4.2269,4.2368,4.247,4.2475,4.2502,4.2561,4.2493,4.241,4.2409,4.2524,4.2524,4.2523,0,3.9813,4.0132,4.0302,4.041,4.0746,4.0818,4.096,4.1186,4.1308,4.1501,4.1583,4.1789,4.1901,4.2056,4.2257,4.2281,4.2453,4.2529,4.2545,4.2539,4.2571,4.2566,4.2501,4.2635,4.2635,4.2635,4.2635,0,3.9789,3.9911,4.0235,4.0338,4.048,4.0712,4.0844,4.1002,4.1201,4.1336,4.1523,4.1644,4.1903,4.2054,4.2211,4.2367,4.2416,4.2505,4.2545,4.2489,4.2476,4.2555,4.2559,4.2636,4.2636,4.2636,4.2636,0,3.9635,3.9858,4.0055,4.0357,4.0436,4.0526,4.0783,4.0888,4.1056,4.1223,4.1275,4.1536,4.1724,4.194,4.2197,4.2303,4.2445,4.2505,4.237,4.2393,4.2397,4.2392,4.2378,4.2387,4.2514,4.2513,4.2512,0,3.9605,3.9704,4.0017,4.0123,4.0261,4.0429,4.0556,4.0786,4.0909,4.1172,4.1244,4.1447,4.1621,4.1909,4.2119,4.2316,4.2381,4.2362,4.2411,4.235,4.2378,4.2369,4.2379,4.2347,4.2345,4.2343,4.2341,0,3.9526,3.9631,3.981,4.0025,4.0172,4.0352,4.054,4.0614,4.0881,4.1009,4.1206,4.134,4.1605,4.1801,4.2024,4.2166,4.2296,4.2325,4.2339,4.228,4.2197,4.224,4.2332,4.2324,4.2325,4.2327,4.2328,4.2328,3.9433,3.953,3.9766,3.9957,4.0123,4.0293,4.0407,4.059,4.0759,4.0995,4.112,4.1312,4.1531,4.1845,4.1981,4.2132,4.2176,4.2197,4.2202,4.2203,4.2185,4.2174,4.2174,4.2174,4.2175,4.2176,4.2177,0,3.9363,3.9525,3.9699,3.9956,4.0105,4.022,4.0433,4.0548,4.0717,4.0913,4.1081,4.1304,4.1496,4.172,4.1925,4.2002,4.2067,4.2048,4.2044,4.2073,4.2135,4.2102,4.1992,4.1992,4.1992,4.1992,4.1992,4.1992,3.9344,3.9514,3.9646,3.9898,4.0059,4.0253,4.0364,4.052,4.0677,4.092,4.1082,4.1229,4.1434,4.1656,4.1835,4.1896,4.1961,4.1924,4.2001,4.2054,4.2069,4.2084,4.2055,4.1936,4.1936,4.1928,4.1927,4.1927]},{"header":{"parameterUnit":"m.s-1","parameterCategory":1,"la1":30.2991,"la2":30.254,"lo1":-89.0895,"lo2":-89.0444,"dy":0.0017,"dx":0.0017,"nx":28,"ny":28,"refTime":"2023-08-26T21:00:00:Z","depth":0,"parameterNumber":3,"parameterNumberName":"V-component_of_WINDS"},"data":[0,0,0,0,0,0,0,0,0,0,0,0,0,0,0,0,0,0,0,0,0,0,0,0,0,0,0,0,0,0,0,0,0,0,0,0,0,0,0,0,0,0,0,0,0,0,0,0,0,0,0,0,0,0,0,0,0,0,-10.0778,-10.0774,0,-10.0358,-10.0353,-10.0348,-10.0124,-10.0124,-10.0123,-10.0123,-9.9659,-9.9647,-9.9635,0,0,0,0,0,0,0,0,0,0,0,0,0,-10.1349,-10.134,-10.0779,-10.0773,-10.0768,-10.0359,-10.0353,-10.0347,-10.0124,-10.0124,-10.0123,-10.0123,-9.9663,-9.9649,-9.9634,0,0,0,0,0,0,0,0,0,0,0,0,0,-10.1032,-10.1337,-10.0779,-10.0608,-10.0589,-10.036,-10.0353,-10.0345,-10.0124,-10.0124,-10.0123,-10.0123,-9.9667,-9.965,-9.9632,-9.9531,0,0,-9.9577,-9.9569,0,0,0,0,0,0,0,0,-10.105,-10.1011,-10.0639,-10.062,-10.0597,-10.0294,-10.0384,-10.0071,-10.0124,-10.0299,-10.0123,-10.0122,-9.9868,-9.9834,-9.9755,-9.9509,-9.9489,-9.9575,-9.9564,-9.9557,-9.9552,0,0,0,0,0,0,0,-10.1072,-10.1027,-10.0611,-10.0633,-10.0608,-10.0539,-10.0494,-10.0323,-10.009,-10.0284,-10.0267,-10.0222,-9.9856,-9.9773,-9.9742,-9.9483,-9.9576,-9.956,-9.9549,-9.9542,-9.9115,-9.9115,0,0,0,0,0,0,-10.1127,-10.1047,-10.0624,-10.0598,-10.0828,-10.053,-10.0479,-10.0391,-10.0092,-10.0047,-10.0223,-10.0213,-9.9804,-9.9764,-9.9725,-9.9578,-9.9557,-9.954,-9.9529,-9.9116,-9.9115,-9.9115,0,0,0,0,0,0,-10.114,-10.1091,-10.0641,-10.0818,-10.0756,-10.0521,-10.0424,-10.0383,-10.03,-10.0047,-10.0,-10.0183,-9.9802,-9.975,-9.958,-9.9559,-9.9532,-9.9515,-9.9116,-9.9116,-9.9115,-9.929,0,0,0,0,0,0,-10.1157,-10.1098,-10.1067,-10.082,-10.0748,-10.0517,-10.0423,-10.0375,-10.0273,-10.0256,-9.9997,-9.9952,-9.9797,-9.9608,-9.9562,-9.9533,-9.9501,-9.9117,-9.9116,-9.9115,-9.9284,-9.9295,-9.9304,0,0,0,0,0,-10.1179,-10.1128,-10.1067,-10.1017,-10.0706,-10.0516,-10.0473,-10.0306,-10.0273,-10.0232,-10.0067,-9.9961,-9.957,-9.9593,-9.9539,-9.9505,-9.9118,-9.9116,-9.9115,-9.928,-9.9293,-9.9304,0,0,0,0,0,0,-10.137,-10.1093,-10.1022,-10.0893,-10.0731,-10.0479,-10.0425,-10.0326,-10.0162,-10.0152,-9.994,-9.9882,-9.9729,-9.9598,-9.963,-9.9382,-9.9331,-9.9319,-9.9475,-9.9484,-9.9494,-9.9526,-9.9486,0,0,0,0,0,-10.14,-10.1281,-10.1039,-10.0948,-10.0871,-10.0663,-10.0573,-10.0458,-10.0277,-10.0204,-10.0027,-9.9846,-9.9679,-9.9575,-9.9409,-9.9264,-9.9196,-9.9212,-9.9222,-9.9231,-9.9222,-9.9121,-9.9122,-9.9111,-9.9111,-9.9111,0,0,-10.1455,-10.1288,-10.1225,-10.0982,-10.0843,-10.0711,-10.0606,-10.0473,-10.0368,-10.018,-10.001,-9.9873,-9.9653,-9.9493,-9.9413,-9.9379,-9.9209,-9.923,-9.9239,-9.9224,-9.912,-9.9121,-9.9123,-9.911,-9.911,-9.9111,0,0,-10.1488,-10.1356,-10.1261,-10.1124,-10.0917,-10.0777,-10.0754,-10.0515,-10.042,-10.0247,-10.01,-9.9964,-9.9688,-9.9535,-9.9421,-9.9386,-9.9275,-9.9336,-9.9385,-9.929,-9.929,-9.929,-9.9267,-9.9263,-9.9328,-9.9328,-9.9329,0,-10.158,-10.1389,-10.1221,-10.1096,-10.0987,-10.0819,-10.0711,-10.0582,-10.0328,-10.025,-10.0219,-9.9862,-9.9703,-9.9498,-9.9489,-9.9406,-9.936,-9.9364,-9.9307,-9.9304,-9.93,-9.9276,-9.9269,-9.9337,-9.9336,-9.9335,-9.9334,0,-10.1506,-10.1373,-10.1319,-10.1087,-10.0971,-10.0856,-10.0657,-10.0558,-10.045,-10.0309,-10.0125,-9.9929,-9.9716,-9.9658,-9.9549,-9.9433,-9.9418,-9.935,-9.9292,-9.9313,-9.9286,-9.9276,-9.9349,-9.9346,-9.9343,-9.9341,0,0,-10.1651,-10.1326,-10.1307,-10.1195,-10.0951,-10.0838,-10.0707,-10.0508,-10.0422,-10.0248,-10.0124,-9.9889,-9.9822,-9.9692,-9.9562,-9.948,-9.945,-9.9418,-9.9409,-9.9424,-9.9296,-9.9346,-9.934,-9.9377,-9.9375,-9.9373,-9.9312,0,-10.1643,-10.1416,-10.1257,-10.1085,-10.0952,-10.0785,-10.0668,-10.0497,-10.0359,-10.0215,-10.0055,-9.9891,-9.982,-9.9738,-9.965,-9.9475,-9.9421,-9.9476,-9.9245,-9.924,-9.9303,-9.9327,-9.9381,-9.9334,-9.9301,-9.9299,-9.9298,0,-10.1606,-10.1447,-10.1265,-10.1026,-10.0964,-10.0865,-10.0663,-10.0533,-10.0328,-10.0231,-10.0085,-9.9952,-9.9789,-9.9748,-9.9513,-9.9555,-9.9448,-9.9346,-9.934,-9.9308,-9.9269,-9.9288,-9.9316,-9.9307,-9.9281,-9.9283,-9.9284,0,-10.172,-10.1458,-10.1313,-10.1223,-10.0944,-10.0875,-10.0753,-10.055,-10.0437,-10.0255,-10.0177,-9.9976,-9.9864,-9.9704,-9.9513,-9.9503,-9.9292,-9.9238,-9.9195,-9.92,-9.9156,-9.9161,-9.9161,-9.9099,-9.9099,-9.9099,-9.9099,0,-10.1726,-10.1618,-10.136,-10.1271,-10.1139,-10.0951,-10.0821,-10.0683,-10.0502,-10.037,-10.0209,-10.0086,-9.9845,-9.9687,-9.9535,-9.9357,-9.9308,-9.9214,-9.9174,-9.9227,-9.9238,-9.9152,-9.9147,-9.9097,-9.9097,-9.9098,-9.9098,0,-10.1831,-10.1656,-10.1485,-10.1235,-10.1168,-10.1082,-10.086,-10.0757,-10.061,-10.0444,-10.0393,-10.0155,-9.996,-9.9756,-9.9488,-9.9385,-9.9209,-9.9157,-9.9283,-9.9259,-9.9225,-9.9229,-9.9166,-9.9142,-9.9104,-9.9104,-9.9105,0,-10.1844,-10.1759,-10.15,-10.1407,-10.1291,-10.1141,-10.1026,-10.0832,-10.0715,-10.0472,-10.0395,-10.0191,-10.0018,-9.971,-9.9504,-9.9294,-9.9231,-9.9223,-9.9198,-9.9249,-9.922,-9.9227,-9.9211,-9.923,-9.9232,-9.9233,-9.9234,0,-10.1883,-10.1799,-10.1647,-10.1461,-10.1331,-10.1172,-10.1006,-10.0934,-10.0703,-10.0577,-10.0383,-10.0249,-9.9978,-9.9771,-9.9536,-9.9391,-9.9268,-9.9244,-9.9221,-9.9272,-9.9346,-9.9297,-9.93,-9.9246,-9.9244,-9.9244,-9.9243,-9.9243,-10.1936,-10.1849,-10.1653,-10.1484,-10.134,-10.1187,-10.1078,-10.0917,-10.0755,-10.0528,-10.0418,-10.0219,-10.0001,-9.9675,-9.9534,-9.9364,-9.9328,-9.9298,-9.9289,-9.9283,-9.9293,-9.9378,-9.932,-9.932,-9.9319,-9.9318,-9.9318,0,-10.196,-10.1825,-10.1673,-10.145,-10.1313,-10.1223,-10.103,-10.0918,-10.075,-10.0564,-10.0398,-10.0165,-9.9962,-9.9739,-9.9518,-9.9424,-9.9361,-9.9371,-9.9373,-9.9339,-9.9341,-9.938,-9.9426,-9.9426,-9.9426,-9.9426,-9.9426,-9.9426,-10.1956,-10.1802,-10.1693,-10.1458,-10.1319,-10.1134,-10.1031,-10.0882,-10.0732,-10.0486,-10.032,-10.0181,-9.9973,-9.9735,-9.9538,-9.9475,-9.9397,-9.9423,-9.9344,-9.9349,-9.9341,-9.9333,-9.9368,-9.941,-9.941,-9.9354,-9.9354,-9.9354]}]]